^^
Station Historical Data
Daily Summary for July 11, 2018 Units:  Metric    English   Both
« Previous Day
Next Day »
Daily Weekly Monthly Yearly Custom
  High: Low: Average:
Temperature: -17.8 °C 11.3 °C 19.3 °C
Dew Point: -17.8 °C 7.1 °C 9.7 °C
Humidity: Humidity % 32 % 57 %
Wind Speed: 0 km/h 0 km/h 0.3 km/h
Wind Gust: 0 km/h - -
Wind:- - SW
Pressure: 0 hPa 1014.1 hPa -
Precipitation: 0 mm    
Historical Graphs
 
 
Tabular Data for July 11, 2018
Time Temperature Dew Point Pressure Wind Wind Speed Wind Gust Humidity Rainfall Rate (Hourly) solar Conditions
-17.8 °C -17.8 °C 0 hPa Calm     Humidity % 0 mm SoftwareType W/m2 Conditions
00:00 16 °C 10.6 °C 1014.1 hPa Calm   1.6 km/h 70 % 0 mm WeatherDisplay:10.37 W/m2 FEW
00:05 15.9 °C 10.5 °C 1014.1 hPa Calm     70 % 0 mm WeatherDisplay:10.37 W/m2 FEW
00:10 15.9 °C 10.4 °C 1014.1 hPa Calm   1.6 km/h 70 % 0 mm WeatherDisplay:10.37 W/m2 FEW
00:15 15.8 °C 10.6 °C 1014.1 hPa Calm   1.6 km/h 71 % 0 mm WeatherDisplay:10.37 W/m2 FEW
00:20 15.8 °C 10.6 °C 1014.1 hPa Calm     71 % 0 mm WeatherDisplay:10.37 W/m2 FEW
00:25 15.7 °C 10.7 °C 1014.4 hPa Calm     72 % 0 mm WeatherDisplay:10.37 W/m2 FEW
00:30 15.6 °C 10.6 °C 1014.1 hPa Calm     72 % 0 mm WeatherDisplay:10.37 W/m2 FEW
00:35 15.5 °C 10.5 °C 1014.4 hPa Calm     72 % 0 mm WeatherDisplay:10.37 W/m2 FEW
00:40 15.4 °C 10.2 °C 1014.4 hPa Calm   3.2 km/h 71 % 0 mm WeatherDisplay:10.37 W/m2 FEW
00:45 15.4 °C 10.2 °C 1014.4 hPa Calm     71 % 0 mm WeatherDisplay:10.37 W/m2 FEW
00:50 15.3 °C 10.1 °C 1014.4 hPa Calm   1.6 km/h 71 % 0 mm WeatherDisplay:10.37 W/m2 FEW
00:55 15.3 °C 10.1 °C 1014.4 hPa Calm     71 % 0 mm WeatherDisplay:10.37 W/m2 FEW
01:00 15.3 °C 10.1 °C 1014.4 hPa Calm   1.6 km/h 71 % 0 mm WeatherDisplay:10.37 W/m2 FEW
01:05 15.2 °C 10 °C 1014.4 hPa Calm   1.6 km/h 71 % 0 mm WeatherDisplay:10.37 W/m2 FEW
01:10 15.2 °C 9.9 °C 1014.4 hPa Calm   1.6 km/h 71 % 0 mm WeatherDisplay:10.37 W/m2 FEW
01:15 15.2 °C 9.9 °C 1014.4 hPa Calm   1.6 km/h 71 % 0 mm WeatherDisplay:10.37 W/m2 FEW
01:20 15.1 °C 9.9 °C 1014.4 hPa Calm   1.6 km/h 71 % 0 mm WeatherDisplay:10.37 W/m2 FEW
01:25 15.1 °C 9.8 °C 1014.8 hPa Calm   3.2 km/h 71 % 0 mm WeatherDisplay:10.37 W/m2 FEW
01:30 15.1 °C 9.8 °C 1014.8 hPa Calm     71 % 0 mm WeatherDisplay:10.37 W/m2 FEW
01:35 15 °C 9.8 °C 1014.8 hPa Calm     71 % 0 mm WeatherDisplay:10.37 W/m2 FEW
01:40 14.9 °C 9.7 °C 1014.8 hPa Calm   1.6 km/h 71 % 0 mm WeatherDisplay:10.37 W/m2 FEW
01:45 14.9 °C 9.7 °C 1014.8 hPa Calm   1.6 km/h 71 % 0 mm WeatherDisplay:10.37 W/m2 FEW
01:50 14.8 °C 9.6 °C 1014.8 hPa Calm   1.6 km/h 71 % 0 mm WeatherDisplay:10.37 W/m2 FEW
01:55 14.8 °C 9.6 °C 1014.8 hPa Calm     71 % 0 mm WeatherDisplay:10.37 W/m2 FEW
02:00 14.8 °C 9.6 °C 1014.8 hPa Calm   1.6 km/h 71 % 0 mm WeatherDisplay:10.37 W/m2 FEW
02:05 14.7 °C 9.5 °C 1014.8 hPa Calm   1.6 km/h 71 % 0 mm WeatherDisplay:10.37 W/m2 FEW
02:10 14.7 °C 9.4 °C 1015.1 hPa Calm     71 % 0 mm WeatherDisplay:10.37 W/m2 FEW
02:15 14.6 °C 9.4 °C 1014.8 hPa Calm     71 % 0 mm WeatherDisplay:10.37 W/m2 FEW
02:20 14.6 °C 9.2 °C 1015.1 hPa Calm   1.6 km/h 70 % 0 mm WeatherDisplay:10.37 W/m2 FEW
02:25 14.5 °C 9.1 °C 1015.1 hPa Calm     70 % 0 mm WeatherDisplay:10.37 W/m2 FEW
02:30 14.5 °C 9.1 °C 1015.1 hPa Calm     70 % 0 mm WeatherDisplay:10.37 W/m2 FEW
02:35 14.4 °C 9.1 °C 1015.1 hPa Calm     70 % 0 mm WeatherDisplay:10.37 W/m2 FEW
02:40 14.4 °C 8.8 °C 1015.1 hPa Calm   3.2 km/h 69 % 0 mm WeatherDisplay:10.37 W/m2 FEW
02:45 14.4 °C 8.8 °C 1015.1 hPa Calm   3.2 km/h 69 % 0 mm WeatherDisplay:10.37 W/m2 FEW
02:50 14.4 °C 8.7 °C 1015.1 hPa Calm   1.6 km/h 69 % 0 mm WeatherDisplay:10.37 W/m2 FEW
02:55 14.3 °C 8.7 °C 1015.1 hPa Calm   1.6 km/h 69 % 0 mm WeatherDisplay:10.37 W/m2 FEW
03:00 14.3 °C 8.7 °C 1015.1 hPa Calm     69 % 0 mm WeatherDisplay:10.37 W/m2 FEW
03:05 14.3 °C 8.7 °C 1015.1 hPa Calm   3.2 km/h 69 % 0 mm WeatherDisplay:10.37 W/m2 FEW
03:10 14.3 °C 8.7 °C 1015.1 hPa Calm     69 % 0 mm WeatherDisplay:10.37 W/m2 FEW
03:15 14.2 °C 8.6 °C 1015.1 hPa Calm     69 % 0 mm WeatherDisplay:10.37 W/m2 FEW
03:20 14.2 °C 8.6 °C 1015.1 hPa Calm   1.6 km/h 69 % 0 mm WeatherDisplay:10.37 W/m2 FEW
03:25 14.2 °C 8.6 °C 1015.5 hPa Calm     69 % 0 mm WeatherDisplay:10.37 W/m2 FEW
03:30 14.1 °C 8.5 °C 1015.5 hPa Calm     69 % 0 mm WeatherDisplay:10.37 W/m2 FEW
03:35 14.1 °C 8.7 °C 1015.5 hPa Calm     70 % 0 mm WeatherDisplay:10.37 W/m2 FEW
03:40 13.9 °C 8.6 °C 1015.5 hPa Calm     70 % 0 mm WeatherDisplay:10.37 W/m2 FEW
03:45 13.9 °C 8.3 °C 1015.5 hPa Calm     69 % 0 mm WeatherDisplay:10.37 W/m2 FEW
03:50 13.8 °C 8.2 °C 1015.5 hPa Calm     69 % 0 mm WeatherDisplay:10.37 W/m2 FEW
03:55 13.7 °C 8.1 °C 1015.8 hPa Calm     69 % 0 mm WeatherDisplay:10.37 W/m2 FEW
04:00 13.6 °C 8.2 °C 1015.8 hPa Calm     70 % 0 mm WeatherDisplay:10.37 W/m2 FEW
04:05 13.5 °C 8.1 °C 1015.8 hPa Calm     70 % 0 mm WeatherDisplay:10.37 W/m2 FEW
04:10 13.4 °C 8.2 °C 1015.8 hPa Calm     71 % 0 mm WeatherDisplay:10.37 W/m2 FEW
04:15 13.3 °C 8.1 °C 1015.8 hPa Calm     71 % 0 mm WeatherDisplay:10.37 W/m2 FEW
04:20 13.2 °C 8 °C 1015.8 hPa Calm     71 % 0 mm WeatherDisplay:10.37 W/m2 FEW
04:25 13.1 °C 8.1 °C 1015.8 hPa Calm     72 % 0 mm WeatherDisplay:10.37 W/m2 FEW
04:30 12.9 °C 8 °C 1015.8 hPa Calm     72 % 0 mm WeatherDisplay:10.37 W/m2 FEW
04:35 12.8 °C 8.1 °C 1015.8 hPa Calm     73 % 0 mm WeatherDisplay:10.37 W/m2 FEW
04:40 12.7 °C 7.9 °C 1015.8 hPa Calm     73 % 0 mm WeatherDisplay:10.37 W/m2 FEW
04:45 12.6 °C 8.1 °C 1015.8 hPa Calm     74 % 0 mm WeatherDisplay:10.37 W/m2 FEW
04:50 12.4 °C 7.9 °C 1015.8 hPa Calm     74 % 0 mm WeatherDisplay:10.37 W/m2 FEW
04:55 12.3 °C 7.8 °C 1015.8 hPa Calm     74 % 0 mm WeatherDisplay:10.37 W/m2 FEW
05:00 12.3 °C 7.9 °C 1016.1 hPa Calm     75 % 0 mm WeatherDisplay:10.37 W/m2 FEW
05:05 12.2 °C 7.9 °C 1016.1 hPa Calm     75 % 0 mm WeatherDisplay:10.37 W/m2 FEW
05:10 12.1 °C 7.8 °C 1016.1 hPa Calm     75 % 0 mm WeatherDisplay:10.37 W/m2 FEW
05:15 12 °C 7.9 °C 1016.1 hPa Calm   1.6 km/h 76 % 0 mm WeatherDisplay:10.37 W/m2 FEW
05:20 11.9 °C 7.8 °C 1016.1 hPa Calm     76 % 0 mm WeatherDisplay:10.37 W/m2 FEW
05:25 11.9 °C 7.8 °C 1016.1 hPa Calm     76 % 0 mm WeatherDisplay:10.37 W/m2 FEW
05:30 11.8 °C 7.7 °C 1016.1 hPa Calm     76 % 0 mm WeatherDisplay:10.37 W/m2 FEW
05:35 11.7 °C 7.8 °C 1016.5 hPa Calm     77 % 0 mm WeatherDisplay:10.37 W/m2 FEW
05:40 11.7 °C 7.8 °C 1016.5 hPa Calm     77 % 0 mm WeatherDisplay:10.37 W/m2 FEW
05:45 11.6 °C 7.9 °C 1016.5 hPa Calm     78 % 0 mm WeatherDisplay:10.37 W/m2 FEW
05:50 11.5 °C 7.8 °C 1016.5 hPa Calm     78 % 0 mm WeatherDisplay:10.37 W/m2 FEW
05:55 11.4 °C 7.7 °C 1016.5 hPa Calm     78 % 0 mm WeatherDisplay:10.37 W/m2 FEW
06:00 11.4 °C 7.9 °C 1016.8 hPa Calm     79 % 0 mm WeatherDisplay:10.37 W/m2 FEW
06:05 11.3 °C 7.8 °C 1016.8 hPa Calm     79 % 0 mm WeatherDisplay:10.37 W/m2 FEW
06:10 11.3 °C 8 °C 1016.8 hPa Calm     80 % 0 mm WeatherDisplay:10.37 W/m2 FEW
06:15 11.3 °C 8 °C 1016.8 hPa Calm     80 % 0 mm WeatherDisplay:10.37 W/m2 FEW
06:20 11.3 °C 8.2 °C 1016.8 hPa Calm     81 % 0 mm WeatherDisplay:10.37 W/m2 FEW
06:25 11.4 °C 8.2 °C 1016.8 hPa Calm     81 % 0 mm WeatherDisplay:10.37 W/m2 FEW
06:30 11.4 °C 8.2 °C 1017.2 hPa Calm     81 % 0 mm WeatherDisplay:10.37 W/m2 FEW
06:35 11.4 °C 8.3 °C 1017.2 hPa Calm     81 % 0 mm WeatherDisplay:10.37 W/m2 FEW
06:40 11.4 °C 8.5 °C 1017.2 hPa Calm     82 % 0 mm WeatherDisplay:10.37 W/m2 FEW
06:45 11.5 °C 8.3 °C 1017.2 hPa Calm     81 % 0 mm WeatherDisplay:10.37 W/m2 FEW
06:50 11.6 °C 8.6 °C 1017.2 hPa Calm     82 % 0 mm WeatherDisplay:10.37 W/m2 FEW
06:55 11.6 °C 8.8 °C 1017.2 hPa Calm     83 % 0 mm WeatherDisplay:10.37 W/m2 FEW
07:00 11.7 °C 8.9 °C 1017.2 hPa Calm     83 % 0 mm WeatherDisplay:10.37 W/m2 FEW
07:05 11.7 °C 8.9 °C 1017.2 hPa Calm     83 % 0 mm WeatherDisplay:10.37 W/m2 FEW
07:10 11.8 °C 9 °C 1017.2 hPa Calm     83 % 0 mm WeatherDisplay:10.37 W/m2 FEW
07:15 11.8 °C 9.1 °C 1017.5 hPa Calm     83 % 0 mm WeatherDisplay:10.37 W/m2 FEW
07:20 11.9 °C 9.1 °C 1017.5 hPa Calm     83 % 0 mm WeatherDisplay:10.37 W/m2 FEW
07:25 11.9 °C 9.2 °C 1017.5 hPa Calm     83 % 0 mm WeatherDisplay:10.37 W/m2 FEW
07:30 12 °C 9.2 °C 1017.5 hPa Calm     83 % 0 mm WeatherDisplay:10.37 W/m2 FEW
07:35 12.1 °C 9.3 °C 1017.5 hPa Calm     83 % 0 mm WeatherDisplay:10.37 W/m2 FEW
07:40 12.2 °C 9.4 °C 1017.5 hPa Calm     83 % 0 mm WeatherDisplay:10.37 W/m2 FEW
07:45 12.3 °C 9.4 °C 1017.5 hPa Calm     83 % 0 mm WeatherDisplay:10.37 W/m2 FEW
07:50 12.4 °C 9.6 °C 1017.5 hPa Calm     83 % 0 mm WeatherDisplay:10.37 W/m2 FEW
07:55 12.5 °C 9.6 °C 1017.5 hPa Calm     82 % 0 mm WeatherDisplay:10.37 W/m2 FEW
08:00 12.7 °C 9.7 °C 1017.5 hPa Calm     82 % 0 mm WeatherDisplay:10.37 W/m2 FEW
08:05 12.8 °C 9.8 °C 1017.5 hPa Calm     82 % 0 mm WeatherDisplay:10.37 W/m2 FEW
08:10 13.1 °C 10.1 °C 1017.5 hPa Calm     82 % 0 mm WeatherDisplay:10.37 W/m2 FEW
08:15 13.3 °C 9.9 °C 1017.5 hPa Calm   3.2 km/h 80 % 0 mm WeatherDisplay:10.37 W/m2 FEW
08:20 13.7 °C 10.1 °C 1017.5 hPa Calm   1.6 km/h 79 % 0 mm WeatherDisplay:10.37 W/m2 FEW
08:25 14.1 °C 10.1 °C 1017.5 hPa Calm   1.6 km/h 77 % 0 mm WeatherDisplay:10.37 W/m2 FEW
08:30 14.3 °C 9.8 °C 1017.5 hPa Calm   4.8 km/h 74 % 0 mm WeatherDisplay:10.37 W/m2 FEW
08:35 14.7 °C 9.4 °C 1017.5 hPa Calm   4.8 km/h 71 % 0 mm WeatherDisplay:10.37 W/m2 FEW
08:40 15 °C 9.4 °C 1017.8 hPa Calm   4.8 km/h 69 % 0 mm WeatherDisplay:10.37 W/m2 FEW
08:45 15.4 °C 9.3 °C 1017.5 hPa NNW 3.2 km/h 8 km/h 67 % 0 mm WeatherDisplay:10.37 W/m2 FEW
08:50 15.7 °C 9.8 °C 1017.5 hPa Calm   3.2 km/h 68 % 0 mm WeatherDisplay:10.37 W/m2 FEW
08:55 16.2 °C 9.6 °C 1017.8 hPa Calm   1.6 km/h 65 % 0 mm WeatherDisplay:10.37 W/m2 FEW
09:00 16.5 °C 9.4 °C 1017.8 hPa Calm   1.6 km/h 63 % 0 mm WeatherDisplay:10.37 W/m2 FEW
09:05 16.8 °C 8.9 °C 1017.5 hPa Calm     60 % 0 mm WeatherDisplay:10.37 W/m2 FEW
09:10 17.2 °C 9.6 °C 1017.8 hPa Calm     61 % 0 mm WeatherDisplay:10.37 W/m2 FEW
09:15 17.6 °C 8.7 °C 1017.5 hPa Calm     56 % 0 mm WeatherDisplay:10.37 W/m2 FEW
09:20 17.9 °C 8.9 °C 1017.8 hPa Calm     56 % 0 mm WeatherDisplay:10.37 W/m2 FEW
09:25 18.1 °C 8.1 °C 1017.8 hPa Calm     52 % 0 mm WeatherDisplay:10.37 W/m2 FEW
09:30 18.5 °C 9 °C 1017.8 hPa Calm     54 % 0 mm WeatherDisplay:10.37 W/m2 FEW
09:35 18.8 °C 8.4 °C 1017.8 hPa Calm     51 % 0 mm WeatherDisplay:10.37 W/m2 FEW
09:40 19.1 °C 9 °C 1017.8 hPa Calm     52 % 0 mm WeatherDisplay:10.37 W/m2 FEW
09:45 19.3 °C 8.6 °C 1017.8 hPa Calm     50 % 0 mm WeatherDisplay:10.37 W/m2 FEW
09:50 19.6 °C 8 °C 1017.8 hPa Calm     47 % 0 mm WeatherDisplay:10.37 W/m2 FEW
09:55 19.9 °C 8 °C 1017.8 hPa Calm     46 % 0 mm WeatherDisplay:10.37 W/m2 FEW
10:00 20.3 °C 8.6 °C 1017.8 hPa Calm   9.7 km/h 47 % 0 mm WeatherDisplay:10.37 W/m2 FEW
10:05 20.6 °C 7.6 °C 1017.8 hPa Calm   9.7 km/h 43 % 0 mm WeatherDisplay:10.37 W/m2 FEW
10:10 20.9 °C 8.2 °C 1017.8 hPa Calm     44 % 0 mm WeatherDisplay:10.37 W/m2 FEW
10:15 21.2 °C 7.8 °C 1017.5 hPa Calm     42 % 0 mm WeatherDisplay:10.37 W/m2 FEW
10:20 21.6 °C 8.4 °C 1017.5 hPa Calm   1.6 km/h 43 % 0 mm WeatherDisplay:10.37 W/m2 FEW
10:25 21.8 °C 8.3 °C 1017.5 hPa Calm   3.2 km/h 42 % 0 mm WeatherDisplay:10.37 W/m2 FEW
10:30 22 °C 8.5 °C 1017.8 hPa Calm   1.6 km/h 42 % 0 mm WeatherDisplay:10.37 W/m2 FEW
10:35 22.2 °C 8.7 °C 1017.8 hPa Calm   1.6 km/h 42 % 0 mm WeatherDisplay:10.37 W/m2 FEW
10:40 22.4 °C 8.1 °C 1017.8 hPa Calm   4.8 km/h 40 % 0 mm WeatherDisplay:10.37 W/m2 FEW
10:45 22.6 °C 8.7 °C 1017.8 hPa Calm   6.4 km/h 41 % 0 mm WeatherDisplay:10.37 W/m2 FEW
10:50 22.8 °C 8.1 °C 1017.8 hPa NNE 1.6 km/h 8 km/h 39 % 0 mm WeatherDisplay:10.37 W/m2 FEW
10:55 22.8 °C 7.4 °C 1017.8 hPa Calm   6.4 km/h 37 % 0 mm WeatherDisplay:10.37 W/m2 FEW
11:00 22.9 °C 7.1 °C 1017.5 hPa Calm   8 km/h 36 % 0 mm WeatherDisplay:10.37 W/m2 FEW
11:05 23.1 °C 8.4 °C 1017.8 hPa Calm   1.6 km/h 39 % 0 mm WeatherDisplay:10.37 W/m2 FEW
11:10 23.2 °C 7.7 °C 1017.8 hPa Calm   3.2 km/h 37 % 0 mm WeatherDisplay:10.37 W/m2 FEW
11:15 23.3 °C 7.4 °C 1017.8 hPa North 1.6 km/h 8 km/h 36 % 0 mm WeatherDisplay:10.37 W/m2 FEW
11:20 23.4 °C 7.9 °C 1017.8 hPa Calm   6.4 km/h 37 % 0 mm WeatherDisplay:10.37 W/m2 FEW
11:25 23.6 °C 8.1 °C 1017.8 hPa Calm   1.6 km/h 37 % 0 mm WeatherDisplay:10.37 W/m2 FEW
11:30 23.8 °C 7.8 °C 1017.8 hPa East 1.6 km/h 8 km/h 36 % 0 mm WeatherDisplay:10.37 W/m2 FEW
11:35 23.9 °C 8.7 °C 1017.8 hPa NNW 1.6 km/h 9.7 km/h 38 % 0 mm WeatherDisplay:10.37 W/m2 FEW
11:40 23.9 °C 8.3 °C 1017.8 hPa Calm   4.8 km/h 37 % 0 mm WeatherDisplay:10.37 W/m2 FEW
11:45 24 °C 9.2 °C 1017.5 hPa Calm   3.2 km/h 39 % 0 mm WeatherDisplay:10.37 W/m2 FEW
11:50 24.1 °C 9.2 °C 1017.5 hPa Calm   3.2 km/h 39 % 0 mm WeatherDisplay:10.37 W/m2 FEW
11:55 24.1 °C 8.9 °C 1017.5 hPa Calm     38 % 0 mm WeatherDisplay:10.37 W/m2 FEW
12:00 24.3 °C 9.4 °C 1017.5 hPa Calm   6.4 km/h 39 % 0 mm WeatherDisplay:10.37 W/m2 FEW
12:05 24.2 °C 9.4 °C 1017.5 hPa Calm   4.8 km/h 39 % 0 mm WeatherDisplay:10.37 W/m2 FEW
12:10 24.3 °C 9.5 °C 1017.5 hPa NE 1.6 km/h 6.4 km/h 39 % 0 mm WeatherDisplay:10.37 W/m2 FEW
12:15 24.4 °C 9.6 °C 1017.5 hPa Calm   3.2 km/h 39 % 0 mm WeatherDisplay:10.37 W/m2 FEW
12:20 24.5 °C 9.2 °C 1017.5 hPa Calm   1.6 km/h 38 % 0 mm WeatherDisplay:10.37 W/m2 FEW
12:25 24.6 °C 9.7 °C 1017.5 hPa Calm   1.6 km/h 39 % 0 mm WeatherDisplay:10.37 W/m2 FEW
12:30 24.6 °C 8.6 °C 1017.5 hPa NNE 1.6 km/h 8 km/h 36 % 0 mm WeatherDisplay:10.37 W/m2 FEW
12:35 24.6 °C 9.3 °C 1017.5 hPa Calm   4.8 km/h 38 % 0 mm WeatherDisplay:10.37 W/m2 FEW
12:40 24.7 °C 9 °C 1017.5 hPa Calm   3.2 km/h 37 % 0 mm WeatherDisplay:10.37 W/m2 FEW
12:45 24.7 °C 9.1 °C 1017.2 hPa Calm   3.2 km/h 37 % 0 mm WeatherDisplay:10.37 W/m2 FEW
12:50 24.7 °C 8.6 °C 1017.2 hPa Calm   1.6 km/h 36 % 0 mm WeatherDisplay:10.37 W/m2 FEW
12:55 24.6 °C 8.9 °C 1017.2 hPa Calm   1.6 km/h 37 % 0 mm WeatherDisplay:10.37 W/m2 FEW
13:00 24.7 °C 9.4 °C 1017.2 hPa Calm     38 % 0 mm WeatherDisplay:10.37 W/m2 FEW
13:05 24.8 °C 9.5 °C 1017.2 hPa Calm   3.2 km/h 38 % 0 mm WeatherDisplay:10.37 W/m2 FEW
13:10 24.9 °C 9.6 °C 1017.2 hPa Calm   3.2 km/h 38 % 0 mm WeatherDisplay:10.37 W/m2 FEW
13:15 25 °C 9.3 °C 1017.2 hPa Calm   4.8 km/h 37 % 0 mm WeatherDisplay:10.37 W/m2 FEW
13:20 25.1 °C 10.1 °C 1016.8 hPa Calm   3.2 km/h 39 % 0 mm WeatherDisplay:10.37 W/m2 FEW
13:25 25.2 °C 9.8 °C 1017.2 hPa North 3.2 km/h 11.3 km/h 38 % 0 mm WeatherDisplay:10.37 W/m2 FEW
13:30 25.1 °C 9 °C 1016.8 hPa Calm   8 km/h 36 % 0 mm WeatherDisplay:10.37 W/m2 FEW
13:35 25.2 °C 9.4 °C 1016.8 hPa NNW 3.2 km/h 14.5 km/h 37 % 0 mm WeatherDisplay:10.37 W/m2 FEW
13:40 25.3 °C 9.9 °C 1016.8 hPa Calm   12.9 km/h 38 % 0 mm WeatherDisplay:10.37 W/m2 FEW
13:45 25.4 °C 9.3 °C 1016.8 hPa NW 3.2 km/h 16.1 km/h 36 % 0 mm WeatherDisplay:10.37 W/m2 FEW
13:50 25.6 °C 9.4 °C 1016.8 hPa NW 3.2 km/h 19.3 km/h 36 % 0 mm WeatherDisplay:10.37 W/m2 FEW
13:55 25.8 °C 9.9 °C 1016.8 hPa NNW 3.2 km/h 8 km/h 37 % 0 mm WeatherDisplay:10.37 W/m2 FEW
14:00 25.9 °C 9.2 °C 1016.8 hPa Calm     35 % 0 mm WeatherDisplay:10.37 W/m2 FEW
14:05 26.1 °C 8.6 °C 1016.8 hPa Calm   3.2 km/h 33 % 0 mm WeatherDisplay:10.37 W/m2 FEW
14:10 26.3 °C 9.2 °C 1016.8 hPa NNW 1.6 km/h 8 km/h 34 % 0 mm WeatherDisplay:10.37 W/m2 FEW
14:15 26.2 °C 9.6 °C 1016.8 hPa Calm   8 km/h 35 % 0 mm WeatherDisplay:10.37 W/m2 FEW
14:20 26.1 °C 8.6 °C 1016.8 hPa NNE 1.6 km/h 6.4 km/h 33 % 0 mm WeatherDisplay:10.37 W/m2 FEW
14:25 26 °C 9.3 °C 1016.8 hPa Calm   9.7 km/h 35 % 0 mm WeatherDisplay:10.37 W/m2 FEW
14:30 25.9 °C 8.8 °C 1016.8 hPa Calm   8 km/h 34 % 0 mm WeatherDisplay:10.37 W/m2 FEW
14:35 25.7 °C 8.7 °C 1016.8 hPa Calm   1.6 km/h 34 % 0 mm WeatherDisplay:10.37 W/m2 FEW
14:40 25.7 °C 9.1 °C 1016.8 hPa Calm   4.8 km/h 35 % 0 mm WeatherDisplay:10.37 W/m2 FEW
14:45 25.8 °C 8.7 °C 1016.8 hPa North 8 km/h 16.1 km/h 34 % 0 mm WeatherDisplay:10.37 W/m2 FEW
14:50 26 °C 8.9 °C 1016.5 hPa Calm   6.4 km/h 34 % 0 mm WeatherDisplay:10.37 W/m2 FEW
14:55 26.3 °C 9.2 °C 1016.8 hPa WNW 4.8 km/h 9.7 km/h 34 % 0 mm WeatherDisplay:10.37 W/m2 FEW
15:00 26.6 °C 9 °C 1016.8 hPa Calm   9.7 km/h 33 % 0 mm WeatherDisplay:10.37 W/m2 FEW
15:05 26.9 °C 9.3 °C 1016.8 hPa NW 4.8 km/h 12.9 km/h 33 % 0 mm WeatherDisplay:10.37 W/m2 FEW
15:10 27.1 °C 8.9 °C 1016.5 hPa NW 1.6 km/h 12.9 km/h 32 % 0 mm WeatherDisplay:10.37 W/m2 FEW
15:15 27.2 °C 10.4 °C 1016.5 hPa Calm   9.7 km/h 35 % 0 mm WeatherDisplay:10.37 W/m2 FEW
15:20 27.2 °C 9.6 °C 1016.5 hPa Calm   4.8 km/h 33 % 0 mm WeatherDisplay:10.37 W/m2 FEW
15:25 27.1 °C 9.4 °C 1016.5 hPa North 1.6 km/h 6.4 km/h 33 % 0 mm WeatherDisplay:10.37 W/m2 FEW
15:30 26.8 °C 9.7 °C 1016.5 hPa Calm   4.8 km/h 34 % 0 mm WeatherDisplay:10.37 W/m2 FEW
15:35 26.7 °C 10.4 °C 1016.5 hPa NNE 1.6 km/h 8 km/h 36 % 0 mm WeatherDisplay:10.37 W/m2 FEW
15:40 26.4 °C 9.3 °C 1016.5 hPa Calm   8 km/h 34 % 0 mm WeatherDisplay:10.37 W/m2 FEW
15:45 26.2 °C 9.1 °C 1016.5 hPa NNW 1.6 km/h 8 km/h 34 % 0 mm WeatherDisplay:10.37 W/m2 FEW
15:50 26.1 °C 9.4 °C 1016.5 hPa NNW 1.6 km/h 4.8 km/h 35 % 0 mm WeatherDisplay:10.37 W/m2 FEW
15:55 26 °C 9.8 °C 1016.5 hPa NW 1.6 km/h 6.4 km/h 36 % 0 mm WeatherDisplay:10.37 W/m2 FEW
16:00 26 °C 9.8 °C 1016.5 hPa Calm   6.4 km/h 36 % 0 mm WeatherDisplay:10.37 W/m2 FEW
16:05 26 °C 9.3 °C 1016.5 hPa North 1.6 km/h 9.7 km/h 35 % 0 mm WeatherDisplay:10.37 W/m2 FEW
16:10 26 °C 9.8 °C 1016.5 hPa NNW 3.2 km/h 11.3 km/h 36 % 0 mm WeatherDisplay:10.37 W/m2 FEW
16:15 26.1 °C 8.9 °C 1016.5 hPa Calm   4.8 km/h 34 % 0 mm WeatherDisplay:10.37 W/m2 FEW
16:20 26.1 °C 9.9 °C 1016.5 hPa Calm   4.8 km/h 36 % 0 mm WeatherDisplay:10.37 W/m2 FEW
16:25 26.2 °C 8.6 °C 1016.5 hPa NNW 1.6 km/h 9.7 km/h 33 % 0 mm WeatherDisplay:10.37 W/m2 FEW
16:30 26.3 °C 9.2 °C 1016.5 hPa NNW 1.6 km/h 8 km/h 34 % 0 mm WeatherDisplay:10.37 W/m2 FEW
16:35 26.4 °C 9.3 °C 1016.5 hPa Calm   4.8 km/h 34 % 0 mm WeatherDisplay:10.37 W/m2 FEW
16:40 26.3 °C 9.2 °C 1016.5 hPa Calm   3.2 km/h 34 % 0 mm WeatherDisplay:10.37 W/m2 FEW
16:45 26.3 °C 9.2 °C 1016.5 hPa Calm   3.2 km/h 34 % 0 mm WeatherDisplay:10.37 W/m2 FEW
16:50 26.2 °C 9.1 °C 1016.5 hPa ENE 1.6 km/h 11.3 km/h 34 % 0 mm WeatherDisplay:10.37 W/m2 FEW
16:55 26.1 °C 9.8 °C 1016.5 hPa Calm   4.8 km/h 36 % 0 mm WeatherDisplay:10.37 W/m2 FEW
17:00 26.1 °C 8.9 °C 1016.5 hPa Calm   4.8 km/h 34 % 0 mm WeatherDisplay:10.37 W/m2 FEW
17:05 26 °C 9.3 °C 1016.8 hPa Calm     35 % 0 mm WeatherDisplay:10.37 W/m2 FEW
17:10 25.9 °C 9.3 °C 1016.8 hPa Calm     35 % 0 mm WeatherDisplay:10.37 W/m2 FEW
17:15 25.9 °C 9.7 °C 1016.5 hPa Calm     36 % 0 mm WeatherDisplay:10.37 W/m2 FEW
17:20 25.9 °C 9.7 °C 1016.8 hPa NE 1.6 km/h 4.8 km/h 36 % 0 mm WeatherDisplay:10.37 W/m2 FEW
17:25 25.9 °C 9.3 °C 1016.8 hPa Calm   4.8 km/h 35 % 0 mm WeatherDisplay:10.37 W/m2 FEW
17:30 25.9 °C 10.1 °C 1016.8 hPa Calm   1.6 km/h 37 % 0 mm WeatherDisplay:10.37 W/m2 FEW
17:35 25.8 °C 9.7 °C 1016.8 hPa Calm   1.6 km/h 36 % 0 mm WeatherDisplay:10.37 W/m2 FEW
17:40 25.8 °C 9.6 °C 1016.8 hPa Calm     36 % 0 mm WeatherDisplay:10.37 W/m2 FEW
17:45 25.7 °C 9.5 °C 1016.8 hPa Calm     36 % 0 mm WeatherDisplay:10.37 W/m2 FEW
17:50 25.6 °C 10.2 °C 1016.8 hPa Calm   1.6 km/h 38 % 0 mm WeatherDisplay:10.37 W/m2 FEW
17:55 25.6 °C 10.2 °C 1016.8 hPa Calm   1.6 km/h 38 % 0 mm WeatherDisplay:10.37 W/m2 FEW
18:00 25.4 °C 11.2 °C 1016.8 hPa Calm   1.6 km/h 41 % 0 mm WeatherDisplay:10.37 W/m2 FEW
18:05 25.3 °C 10.4 °C 1016.8 hPa Calm     39 % 0 mm WeatherDisplay:10.37 W/m2 FEW
18:10 25.2 °C 9.9 °C 1016.8 hPa Calm     38 % 0 mm WeatherDisplay:10.37 W/m2 FEW
18:15 25.2 °C 10.6 °C 1016.8 hPa Calm     40 % 0 mm WeatherDisplay:10.37 W/m2 FEW
18:20 25.1 °C 10.2 °C 1016.8 hPa Calm     39 % 0 mm WeatherDisplay:10.37 W/m2 FEW
18:25 25.1 °C 10.5 °C 1016.8 hPa Calm   1.6 km/h 40 % 0 mm WeatherDisplay:10.37 W/m2 FEW
18:30 25.1 °C 10.9 °C 1016.8 hPa Calm     41 % 0 mm WeatherDisplay:10.37 W/m2 FEW
18:35 25 °C 11.2 °C 1016.8 hPa Calm     42 % 0 mm WeatherDisplay:10.37 W/m2 FEW
18:40 24.9 °C 11.4 °C 1016.8 hPa Calm     43 % 0 mm WeatherDisplay:10.37 W/m2 FEW
18:45 24.8 °C 10.7 °C 1016.8 hPa Calm   1.6 km/h 41 % 0 mm WeatherDisplay:10.37 W/m2 FEW
18:50 24.8 °C 11 °C 1016.8 hPa Calm     42 % 0 mm WeatherDisplay:10.37 W/m2 FEW
18:55 24.7 °C 10.6 °C 1016.8 hPa Calm     41 % 0 mm WeatherDisplay:10.37 W/m2 FEW
19:00 24.6 °C 10.8 °C 1017.2 hPa Calm     42 % 0 mm WeatherDisplay:10.37 W/m2 FEW
19:05 24.5 °C 10.8 °C 1017.2 hPa Calm     42 % 0 mm WeatherDisplay:10.37 W/m2 FEW
19:10 24.4 °C 11.1 °C 1017.2 hPa Calm     43 % 0 mm WeatherDisplay:10.37 W/m2 FEW
19:15 24.3 °C 10.9 °C 1017.2 hPa Calm   1.6 km/h 43 % 0 mm WeatherDisplay:10.37 W/m2 FEW
19:20 24.3 °C 10.9 °C 1017.2 hPa NNE 3.2 km/h 8 km/h 43 % 0 mm WeatherDisplay:10.37 W/m2 FEW
19:25 24.3 °C 11.2 °C 1017.2 hPa Calm   3.2 km/h 44 % 0 mm WeatherDisplay:10.37 W/m2 FEW
19:30 24.3 °C 11.6 °C 1017.2 hPa Calm     45 % 0 mm WeatherDisplay:10.37 W/m2 FEW
19:35 24.3 °C 11.6 °C 1017.2 hPa NNW 1.6 km/h 6.4 km/h 45 % 0 mm WeatherDisplay:10.37 W/m2 FEW
19:40 24.3 °C 11.2 °C 1017.2 hPa Calm   6.4 km/h 44 % 0 mm WeatherDisplay:10.37 W/m2 FEW
19:45 24.2 °C 11.6 °C 1017.2 hPa Calm   8 km/h 45 % 0 mm WeatherDisplay:10.37 W/m2 FEW
19:50 24.2 °C 11.5 °C 1017.2 hPa Calm   3.2 km/h 45 % 0 mm WeatherDisplay:10.37 W/m2 FEW
19:55 24.2 °C 11.5 °C 1017.2 hPa Calm     45 % 0 mm WeatherDisplay:10.37 W/m2 FEW
20:00 24.2 °C 12.1 °C 1017.2 hPa Calm     47 % 0 mm WeatherDisplay:10.37 W/m2 FEW
20:05 24.1 °C 12.1 °C 1017.2 hPa Calm     47 % 0 mm WeatherDisplay:10.37 W/m2 FEW
20:10 24 °C 12 °C 1017.2 hPa Calm     47 % 0 mm WeatherDisplay:10.37 W/m2 FEW
20:15 23.9 °C 12.5 °C 1017.2 hPa Calm     49 % 0 mm WeatherDisplay:10.37 W/m2 FEW
20:20 23.7 °C 12.6 °C 1017.2 hPa Calm     50 % 0 mm WeatherDisplay:10.37 W/m2 FEW
20:25 23.4 °C 12.4 °C 1017.2 hPa Calm     50 % 0 mm WeatherDisplay:10.37 W/m2 FEW
20:30 23.1 °C 12.4 °C 1017.2 hPa Calm     51 % 0 mm WeatherDisplay:10.37 W/m2 FEW
20:35 22.9 °C 12.8 °C 1017.2 hPa Calm     53 % 0 mm WeatherDisplay:10.37 W/m2 FEW
20:40 22.6 °C 12.4 °C 1017.5 hPa Calm     53 % 0 mm WeatherDisplay:10.37 W/m2 FEW
20:45 22.2 °C 12.7 °C 1017.2 hPa Calm     55 % 0 mm WeatherDisplay:10.37 W/m2 FEW
20:50 21.8 °C 12.4 °C 1017.2 hPa Calm     55 % 0 mm WeatherDisplay:10.37 W/m2 FEW
20:55 21.6 °C 12.4 °C 1017.2 hPa Calm     56 % 0 mm WeatherDisplay:10.37 W/m2 FEW
21:00 21.2 °C 12.6 °C 1017.2 hPa Calm     58 % 0 mm WeatherDisplay:10.37 W/m2 FEW
21:05 21 °C 12.7 °C 1017.5 hPa Calm     59 % 0 mm WeatherDisplay:10.37 W/m2 FEW
21:10 20.8 °C 12.8 °C 1017.5 hPa Calm     60 % 0 mm WeatherDisplay:10.37 W/m2 FEW
21:15 20.6 °C 12.8 °C 1017.5 hPa Calm     61 % 0 mm WeatherDisplay:10.37 W/m2 FEW
21:20 20.3 °C 12.8 °C 1017.5 hPa Calm     62 % 0 mm WeatherDisplay:10.37 W/m2 FEW
21:25 20.1 °C 12.8 °C 1017.5 hPa Calm     63 % 0 mm WeatherDisplay:10.37 W/m2 FEW
21:30 19.9 °C 12.9 °C 1017.8 hPa Calm     64 % 0 mm WeatherDisplay:10.37 W/m2 FEW
21:35 19.7 °C 12.9 °C 1017.8 hPa Calm     65 % 0 mm WeatherDisplay:10.37 W/m2 FEW
21:40 19.4 °C 12.7 °C 1017.8 hPa Calm     65 % 0 mm WeatherDisplay:10.37 W/m2 FEW
21:45 19.2 °C 12.9 °C 1017.8 hPa Calm     67 % 0 mm WeatherDisplay:10.37 W/m2 FEW
21:50 19 °C 12.7 °C 1017.8 hPa Calm     67 % 0 mm WeatherDisplay:10.37 W/m2 FEW
21:55 18.8 °C 12.8 °C 1017.8 hPa Calm     68 % 0 mm WeatherDisplay:10.37 W/m2 FEW
22:00 18.6 °C 12.6 °C 1017.8 hPa Calm     68 % 0 mm WeatherDisplay:10.37 W/m2 FEW
22:05 18.4 °C 12.6 °C 1017.8 hPa Calm     69 % 0 mm WeatherDisplay:10.37 W/m2 FEW
22:10 18.2 °C 12.6 °C 1017.8 hPa Calm     70 % 0 mm WeatherDisplay:10.37 W/m2 FEW
22:15 18 °C 12.7 °C 1017.8 hPa Calm     71 % 0 mm WeatherDisplay:10.37 W/m2 FEW
22:20 17.8 °C 12.5 °C 1018.2 hPa Calm     71 % 0 mm WeatherDisplay:10.37 W/m2 FEW
22:25 17.7 °C 12.6 °C 1018.2 hPa Calm     72 % 0 mm WeatherDisplay:10.37 W/m2 FEW
22:30 17.6 °C 12.4 °C 1018.2 hPa Calm     72 % 0 mm WeatherDisplay:10.37 W/m2 FEW
22:35 17.4 °C 12.3 °C 1018.2 hPa Calm     72 % 0 mm WeatherDisplay:10.37 W/m2 FEW
22:40 17.2 °C 12.3 °C 1018.2 hPa Calm     73 % 0 mm WeatherDisplay:10.37 W/m2 FEW
22:45 17.1 °C 12.2 °C 1018.2 hPa Calm   1.6 km/h 73 % 0 mm WeatherDisplay:10.37 W/m2 FEW
22:50 16.9 °C 12.3 °C 1018.2 hPa Calm     74 % 0 mm WeatherDisplay:10.37 W/m2 FEW
22:55 16.8 °C 12.2 °C 1018.2 hPa Calm     74 % 0 mm WeatherDisplay:10.37 W/m2 FEW
23:00 16.7 °C 12.2 °C 1018.2 hPa Calm     75 % 0 mm WeatherDisplay:10.37 W/m2 FEW
23:05 16.6 °C 12.2 °C 1018.2 hPa Calm     75 % 0 mm WeatherDisplay:10.37 W/m2 FEW
23:10 16.4 °C 12 °C 1018.2 hPa Calm     75 % 0 mm WeatherDisplay:10.37 W/m2 FEW
23:15 16.3 °C 11.9 °C 1018.2 hPa Calm     75 % 0 mm WeatherDisplay:10.37 W/m2 FEW
23:20 16.2 °C 12.2 °C 1018.2 hPa Calm     77 % 0 mm WeatherDisplay:10.37 W/m2 FEW
23:25 16.2 °C 12.1 °C 1018.2 hPa Calm     77 % 0 mm WeatherDisplay:10.37 W/m2 FEW
23:30 16.1 °C 12 °C 1018.2 hPa Calm     77 % 0 mm WeatherDisplay:10.37 W/m2 FEW
23:35 16 °C 11.9 °C 1018.2 hPa Calm     77 % 0 mm WeatherDisplay:10.37 W/m2 FEW
23:40 15.9 °C 11.9 °C 1018.2 hPa Calm     77 % 0 mm WeatherDisplay:10.37 W/m2 FEW
23:45 15.9 °C 12.1 °C 1018.2 hPa Calm     78 % 0 mm WeatherDisplay:10.37 W/m2 FEW
23:50 15.8 °C 12 °C 1018.2 hPa Calm     78 % 0 mm WeatherDisplay:10.37 W/m2 FEW
23:55 15.8 °C 11.8 °C 1018.2 hPa Calm     77 % 0 mm WeatherDisplay:10.37 W/m2 FEW
Juneau County Weather
Compliments of Weather Underground - 3 mb